| time (UTC) | temp F | wind direction | speed MPH | gust MPH | rain 1hr in | rain 24hr in | rain mn in | humidity % | barometer mb |
| 20260510054324 | 47 | 270 | 0.0 | 3.0 | 0.00 | 0.00 | 0.00 | 91 | 1011.8 |
| 20260510053804 | 46 | 23 | 0.0 | 2.0 | 0.00 | 0.00 | 0.00 | 91 | 1011.9 |
| 20260510052807 | 45 | 270 | 0.0 | 0.0 | 0.00 | 0.00 | 0.00 | 90 | 1011.9 |
| 20260510051320 | 45 | 270 | 0.0 | 0.0 | 0.00 | 0.00 | 0.00 | 90 | 1011.8 |
| 20260510050324 | 45 | 338 | 0.0 | 0.0 | 0.00 | 0.00 | 0.00 | 90 | 1011.8 |
| 20260510045320 | 45 | 45 | 0.0 | 0.0 | 0.00 | 0.00 | 0.00 | 89 | 1011.9 |
| 20260510044321 | 44 | 270 | 0.0 | 0.0 | 0.00 | 0.00 | 0.00 | 89 | 1011.9 |
| 20260510043804 | 44 | 338 | 0.0 | 0.0 | 0.00 | 0.00 | 0.00 | 89 | 1011.6 |
| 20260510042810 | 44 | 68 | 0.0 | 0.0 | 0.00 | 0.00 | 0.00 | 89 | 1011.6 |
| 20260510041322 | 43 | 23 | 0.0 | 0.0 | 0.00 | 0.00 | 0.00 | 88 | 1011.8 |
| 20260510040324 | 43 | 270 | 0.0 | 0.0 | 0.00 | 0.00 | 0.00 | 88 | 1011.8 |
| 20260510035318 | 43 | 23 | 0.0 | 0.0 | 0.00 | 0.00 | 0.00 | 88 | 1011.8 |
| 20260510034318 | 43 | 270 | 0.0 | 0.0 | 0.00 | 0.00 | 0.00 | 88 | 1011.8 |
| 20260510033324 | 43 | 270 | 0.0 | 1.0 | 0.00 | 0.00 | 0.00 | 88 | 1012.0 |
| 20260510032325 | 44 | 270 | 0.0 | 0.0 | 0.00 | 0.00 | 0.00 | 87 | 1012.0 |
| 20260510031318 | 43 | 23 | 0.0 | 0.0 | 0.00 | 0.00 | 0.00 | 87 | 1011.9 |
| 20260510030323 | 44 | 23 | 0.0 | 0.0 | 0.00 | 0.00 | 0.00 | 87 | 1011.9 |
| 20260510025318 | 44 | 23 | 0.0 | 0.0 | 0.00 | 0.00 | 0.00 | 87 | 1012.0 |
| 20260510024317 | 44 | 23 | 0.0 | 0.0 | 0.00 | 0.00 | 0.00 | 86 | 1012.0 |
| 20260510023323 | 44 | 23 | 0.0 | 0.0 | 0.00 | 0.00 | 0.00 | 86 | 1012.3 |
| 20260510022751 | 44 | 23 | 0.0 | 0.0 | 0.00 | 0.00 | 0.00 | 86 | 1012.3 |
| 20260510021316 | 44 | 23 | 0.0 | 0.0 | 0.00 | 0.00 | 0.00 | 86 | 1012.4 |
| 20260510020324 | 45 | 23 | 0.0 | 0.0 | 0.00 | 0.00 | 0.00 | 85 | 1012.4 |
| 20260510015755 | 45 | 23 | 0.0 | 0.0 | 0.00 | 0.00 | 0.00 | 85 | 1012.4 |
| 20260510014317 | 45 | 23 | 0.0 | 0.0 | 0.00 | 0.00 | 0.00 | 85 | 1012.4 |
| 20260510013320 | 45 | 23 | 0.0 | 0.0 | 0.00 | 0.00 | 0.00 | 84 | 1012.6 |
| 20260510012317 | 46 | 23 | 0.0 | 0.0 | 0.00 | 0.00 | 0.00 | 84 | 1012.6 |
| 20260510011810 | 46 | 23 | 0.0 | 0.0 | 0.00 | 0.00 | 0.00 | 84 | 1012.3 |
| 20260510010321 | 46 | 23 | 0.0 | 0.0 | 0.00 | 0.00 | 0.00 | 83 | 1012.3 |
| 20260510005755 | 46 | 23 | 0.0 | 0.0 | 0.00 | 0.00 | 0.00 | 83 | 1012.5 |
| 20260510004750 | 46 | 23 | 0.0 | 0.0 | 0.00 | 0.00 | 0.00 | 82 | 1012.5 |
| 20260510003320 | 47 | 23 | 0.0 | 0.0 | 0.00 | 0.00 | 0.00 | 82 | 1012.8 |
| 20260510002308 | 47 | 23 | 0.0 | 0.0 | 0.00 | 0.00 | 0.00 | 81 | 1012.8 |
| 20260510001304 | 47 | 23 | 0.0 | 0.0 | 0.00 | 0.00 | 0.00 | 81 | 1012.9 |
| 20260510000305 | 47 | 23 | 0.0 | 0.0 | 0.00 | 0.00 | 0.00 | 80 | 1012.9 |
| 20260509235307 | 48 | 23 | 0.0 | 0.0 | 0.00 | 0.00 | 0.00 | 79 | 1013.1 |
| 20260509234305 | 48 | 23 | 0.0 | 0.0 | 0.00 | 0.00 | 0.00 | 79 | 1013.1 |
| 20260509233304 | 48 | 23 | 0.0 | 0.0 | 0.00 | 0.00 | 0.00 | 78 | 1013.3 |
| 20260509232306 | 48 | 23 | 0.0 | 0.0 | 0.00 | 0.00 | 0.00 | 78 | 1013.3 |
| 20260509231756 | 49 | 23 | 0.0 | 0.0 | 0.00 | 0.00 | 0.00 | 77 | 1013.5 |
| 20260509230309 | 49 | 23 | 0.0 | 0.0 | 0.00 | 0.00 | 0.00 | 77 | 1013.5 |
| 20260509225309 | 50 | 23 | 0.0 | 0.0 | 0.00 | 0.00 | 0.00 | 76 | 1013.8 |
| 20260509224305 | 50 | 23 | 0.0 | 0.0 | 0.00 | 0.00 | 0.00 | 75 | 1013.8 |
| 20260509223307 | 50 | 23 | 0.0 | 0.0 | 0.00 | 0.00 | 0.00 | 74 | 1014.0 |
| 20260509222307 | 51 | 23 | 0.0 | 0.0 | 0.00 | 0.00 | 0.00 | 73 | 1014.0 |
| 20260509221305 | 51 | 23 | 0.0 | 0.0 | 0.00 | 0.00 | 0.00 | 72 | 1013.8 |
| 20260509214759 | 53 | 23 | 0.0 | 0.0 | 0.00 | 0.00 | 0.00 | 69 | 1013.7 |
| 20260509213306 | 54 | 23 | 0.0 | 0.0 | 0.00 | 0.00 | 0.00 | 68 | 1013.9 |
| 20260509212305 | 54 | 23 | 0.0 | 0.0 | 0.00 | 0.00 | 0.00 | 67 | 1013.9 |
| 20260509211304 | 55 | 23 | 0.0 | 0.0 | 0.00 | 0.00 | 0.00 | 66 | 1014.1 |
| 20260509205306 | 56 | 23 | 0.0 | 0.0 | 0.00 | 0.00 | 0.00 | 63 | 1014.5 |
| 20260509204304 | 56 | 23 | 0.0 | 0.0 | 0.00 | 0.00 | 0.00 | 63 | 1014.5 |
| 20260509203307 | 57 | 23 | 0.0 | 0.0 | 0.00 | 0.00 | 0.00 | 61 | 1014.5 |
| 20260509202306 | 57 | 23 | 0.0 | 0.0 | 0.00 | 0.00 | 0.00 | 60 | 1014.5 |
| 20260509201302 | 58 | 23 | 0.0 | 0.0 | 0.00 | 0.00 | 0.00 | 59 | 1013.9 |
| 20260509200303 | 58 | 23 | 0.0 | 0.0 | 0.00 | 0.00 | 0.00 | 58 | 1013.9 |
| 20260509195301 | 58 | 23 | 0.0 | 0.0 | 0.00 | 0.00 | 0.00 | 57 | 1014.5 |
| 20260509194300 | 58 | 23 | 0.0 | 0.0 | 0.00 | 0.00 | 0.00 | 57 | 1014.5 |
| 20260509193303 | 58 | 23 | 0.0 | 0.0 | 0.00 | 0.00 | 0.00 | 56 | 1014.3 |
| 20260509192300 | 59 | 23 | 0.0 | 0.0 | 0.00 | 0.00 | 0.00 | 54 | 1014.3 |
| 20260509191302 | 60 | 23 | 0.0 | 0.0 | 0.00 | 0.00 | 0.00 | 53 | 1014.4 |
| 20260509190303 | 61 | 23 | 0.0 | 0.0 | 0.00 | 0.00 | 0.00 | 51 | 1014.4 |
| 20260509185258 | 62 | 23 | 0.0 | 1.0 | 0.00 | 0.00 | 0.00 | 50 | 1014.6 |
| 20260509183300 | 64 | 23 | 0.0 | 0.0 | 0.00 | 0.00 | 0.00 | 46 | 1014.8 |
| 20260509182211 | 66 | 315 | 1.0 | 4.0 | 0.00 | 0.00 | 0.00 | 44 | 1014.8 |
| 20260509181212 | 67 | 23 | 2.0 | 2.0 | 0.00 | 0.00 | 0.00 | 42 | 1014.9 |
| 20260509180213 | 69 | 248 | 2.0 | 4.0 | 0.00 | 0.00 | 0.00 | 40 | 1014.9 |
| 20260509175652 | 70 | 248 | 2.0 | 4.0 | 0.00 | 0.00 | 0.00 | 40 | 1015.0 |
| 20260509174214 | 72 | 180 | 3.0 | 6.0 | 0.00 | 0.00 | 0.00 | 39 | 1015.0 |
| 20260509173211 | 73 | 248 | 2.0 | 4.0 | 0.00 | 0.00 | 0.00 | 39 | 1014.8 |
| 20260509172210 | 73 | 270 | 1.0 | 4.0 | 0.00 | 0.00 | 0.00 | 40 | 1014.8 |
| 20260509171211 | 74 | 338 | 1.0 | 3.0 | 0.00 | 0.00 | 0.00 | 40 | 1015.3 |
| 20260509170211 | 74 | 248 | 1.0 | 4.0 | 0.00 | 0.00 | 0.00 | 40 | 1015.3 |
| 20260509165211 | 74 | 180 | 2.0 | 3.0 | 0.00 | 0.00 | 0.00 | 41 | 1014.6 |
| 20260509164210 | 71 | 248 | 1.0 | 2.0 | 0.00 | 0.00 | 0.00 | 41 | 1014.6 |
| 20260509163212 | 71 | 135 | 1.0 | 3.0 | 0.00 | 0.00 | 0.00 | 42 | 1014.5 |
| 20260509162207 | 70 | 270 | 1.0 | 3.0 | 0.00 | 0.00 | 0.00 | 43 | 1014.5 |
| 20260509161207 | 70 | 135 | 2.0 | 3.0 | 0.00 | 0.00 | 0.00 | 41 | 1014.8 |
| 20260509160209 | 71 | 248 | 2.0 | 3.0 | 0.00 | 0.00 | 0.00 | 40 | 1014.8 |
| 20260509155642 | 75 | 203 | 2.0 | 5.0 | 0.00 | 0.00 | 0.00 | 38 | 1014.8 |
| 20260509154207 | 76 | 270 | 3.0 | 6.0 | 0.00 | 0.00 | 0.00 | 40 | 1014.8 |
| 20260509153206 | 74 | 248 | 2.0 | 5.0 | 0.00 | 0.00 | 0.00 | 42 | 1014.4 |
| 20260509152637 | 71 | 225 | 3.0 | 4.0 | 0.00 | 0.00 | 0.00 | 43 | 1014.4 |
| 20260509151159 | 71 | 158 | 3.0 | 6.0 | 0.00 | 0.00 | 0.00 | 41 | 1014.8 |
| 20260509150205 | 71 | 225 | 2.0 | 4.0 | 0.00 | 0.00 | 0.00 | 41 | 1014.8 |
| 20260509145201 | 71 | 135 | 3.0 | 4.0 | 0.00 | 0.00 | 0.00 | 41 | 1014.6 |
| 20260509144647 | 71 | 135 | 3.0 | 5.0 | 0.00 | 0.00 | 0.00 | 41 | 1014.6 |
| 20260509143205 | 73 | 203 | 2.0 | 6.0 | 0.00 | 0.00 | 0.00 | 40 | 1014.5 |
| 20260509142200 | 73 | 158 | 3.0 | 5.0 | 0.00 | 0.00 | 0.00 | 41 | 1014.5 |
| 20260509141202 | 72 | 270 | 4.0 | 7.0 | 0.00 | 0.00 | 0.00 | 45 | 1014.4 |
| 20260509140204 | 70 | 248 | 3.0 | 7.0 | 0.00 | 0.00 | 0.00 | 47 | 1014.4 |
| 20260509135158 | 67 | 248 | 1.0 | 4.0 | 0.00 | 0.00 | 0.00 | 49 | 1014.7 |
| 20260509134636 | 67 | 315 | 1.0 | 3.0 | 0.00 | 0.00 | 0.00 | 48 | 1014.7 |
| 20260509133201 | 68 | 203 | 2.0 | 8.0 | 0.00 | 0.00 | 0.00 | 47 | 1014.8 |
| 20260509132158 | 70 | 180 | 2.0 | 4.0 | 0.00 | 0.00 | 0.00 | 46 | 1014.8 |
| 20260509131158 | 69 | 135 | 2.0 | 4.0 | 0.00 | 0.00 | 0.00 | 48 | 1014.9 |
| 20260509130203 | 69 | 293 | 1.0 | 4.0 | 0.00 | 0.00 | 0.00 | 49 | 1014.9 |
| 20260509125158 | 68 | 45 | 2.0 | 3.0 | 0.00 | 0.00 | 0.00 | 48 | 1014.8 |
| 20260509124159 | 68 | 68 | 2.0 | 4.0 | 0.00 | 0.00 | 0.00 | 50 | 1014.8 |
| 20260509123159 | 68 | 338 | 2.0 | 4.0 | 0.00 | 0.00 | 0.00 | 50 | 1015.1 |
| 20260509121157 | 69 | 158 | 2.0 | 4.0 | 0.00 | 0.00 | 0.00 | 49 | 1015.0 |
| 20260509120202 | 69 | 338 | 1.0 | 3.0 | 0.00 | 0.00 | 0.00 | 52 | 1015.0 |
| 20260509115157 | 68 | 315 | 2.0 | 6.0 | 0.00 | 0.00 | 0.00 | 54 | 1015.0 |
| 20260509114157 | 67 | 248 | 2.0 | 5.0 | 0.00 | 0.00 | 0.00 | 55 | 1015.0 |
| 20260509113201 | 64 | 338 | 0.0 | 0.0 | 0.00 | 0.00 | 0.00 | 59 | 1015.1 |
| 20260509112725 | 65 | 23 | 1.0 | 3.0 | 0.00 | 0.00 | 0.00 | 59 | 1015.1 |
| 20260509111252 | 64 | 338 | 0.0 | 2.0 | 0.00 | 0.00 | 0.00 | 59 | 1015.3 |
| 20260509110249 | 66 | 45 | 1.0 | 3.0 | 0.00 | 0.00 | 0.00 | 58 | 1015.3 |
| 20260509105249 | 66 | 45 | 1.0 | 3.0 | 0.00 | 0.00 | 0.00 | 58 | 1015.3 |
| 20260509104251 | 65 | 68 | 2.0 | 4.0 | 0.00 | 0.00 | 0.00 | 62 | 1015.3 |
| 20260509103249 | 63 | 338 | 2.0 | 4.0 | 0.00 | 0.00 | 0.00 | 62 | 1015.5 |
| 20260509102250 | 63 | 315 | 1.0 | 4.0 | 0.00 | 0.00 | 0.00 | 62 | 1015.5 |
| 20260509101250 | 63 | 23 | 2.0 | 4.0 | 0.00 | 0.00 | 0.00 | 64 | 1015.3 |
| 20260509100247 | 61 | 203 | 2.0 | 5.0 | 0.00 | 0.00 | 0.00 | 64 | 1015.3 |
| 20260509095248 | 64 | 180 | 2.0 | 6.0 | 0.00 | 0.00 | 0.00 | 61 | 1015.5 |
| 20260509094248 | 68 | 45 | 2.0 | 6.0 | 0.00 | 0.00 | 0.00 | 61 | 1015.5 |
| 20260509093248 | 66 | 135 | 1.0 | 3.0 | 0.00 | 0.00 | 0.00 | 63 | 1015.4 |
| 20260509092249 | 63 | 23 | 1.0 | 3.0 | 0.00 | 0.00 | 0.00 | 69 | 1015.4 |
| 20260509091720 | 61 | 338 | 1.0 | 5.0 | 0.00 | 0.00 | 0.00 | 70 | 1015.4 |
| 20260509090248 | 62 | 45 | 2.0 | 6.0 | 0.00 | 0.00 | 0.00 | 72 | 1015.4 |
| 20260509085249 | 57 | 0 | 2.0 | 5.0 | 0.00 | 0.00 | 0.00 | 75 | 1015.5 |
| 20260509084741 | 60 | 338 | 1.0 | 3.0 | 0.00 | 0.00 | 0.00 | 72 | 1015.5 |
| 20260509083726 | 61 | 270 | 2.0 | 5.0 | 0.00 | 0.00 | 0.00 | 72 | 1015.6 |
| 20260509082245 | 63 | 338 | 0.0 | 2.0 | 0.00 | 0.00 | 0.00 | 75 | 1015.6 |
| 20260509081245 | 60 | 45 | 2.0 | 8.0 | 0.00 | 0.00 | 0.00 | 77 | 1015.5 |
| 20260509080246 | 59 | 315 | 1.0 | 4.0 | 0.00 | 0.00 | 0.00 | 78 | 1015.5 |
| 20260509075247 | 59 | 135 | 1.0 | 3.0 | 0.00 | 0.00 | 0.00 | 82 | 1015.5 |
| 20260509074724 | 56 | 180 | 0.0 | 3.0 | 0.00 | 0.00 | 0.00 | 88 | 1015.5 |
| 20260509073247 | 54 | 23 | 1.0 | 4.0 | 0.00 | 0.00 | 0.00 | 88 | 1015.3 |
| 20260509072243 | 52 | 68 | 2.0 | 4.0 | 0.00 | 0.00 | 0.00 | 89 | 1015.3 |
| 20260509071241 | 51 | 68 | 1.0 | 4.0 | 0.00 | 0.00 | 0.00 | 90 | 1015.5 |
| 20260509070239 | 50 | 315 | 1.0 | 4.0 | 0.00 | 0.00 | 0.00 | 91 | 1015.5 |
| 20260509065237 | 49 | 113 | 0.0 | 3.0 | 0.00 | 0.00 | 0.00 | 91 | 1015.5 |
| 20260509064240 | 49 | 23 | 0.0 | 1.0 | 0.00 | 0.00 | 0.00 | 91 | 1015.5 |
| 20260509063238 | 48 | 45 | 1.0 | 3.0 | 0.00 | 0.00 | 0.00 | 92 | 1015.4 |
| 20260509062237 | 47 | 45 | 0.0 | 3.0 | 0.00 | 0.00 | 0.00 | 92 | 1015.4 |
| 20260509061733 | 46 | 23 | 0.0 | 0.0 | 0.00 | 0.00 | 0.00 | 92 | 1015.4 |
| 20260509060238 | 46 | 45 | 0.0 | 0.0 | 0.00 | 0.00 | 0.00 | 92 | 1015.4 |
| 20260509055235 | 45 | 23 | 0.0 | 0.0 | 0.00 | 0.00 | 0.00 | 92 | 1015.3 |